www.pogodaiklimat.ru

Погода и климат >> Архив погоды >> Россия >> Астраханская область >> Досанг


ПОГОДА в Досанге

  • Прогноз погоды в Досанге
  • Монитор погоды в Досанге
  • Климат города

АРХИВ ПОГОДЫ в Досанге

Время (UTC), дата Ветер
(напр.,м/с)
 
Видим.   Явления Облачность Т
(С)
Тd
(С)
f
(%)
Тe
(С)
Тes
(С)
Комфортность P
(гПа)
Po
(гПа)
Тmin
(С)
Tmax
(С)
R
(мм)
S
(см)
03 16.03 В 3 10 км 8/0
[Ci sp]
+0.8 -3.3 74 -3 -3 1015.6 1017.9 +0.8
06 16.03 В 5 20 км 10/0
[Ac As]
+6.6 0.0 63 +3 +4 1015.7 1017.9 +0.7
09 16.03 В 4
{10}
20 км 10/0
[Ac As]
+7.5 -1.0 55 +5 +7 1015.4 1017.6
12 16.03 В 6 20 км 10/0
[Ac As]
+6.8 -3.5 48 +3 +3 1013.6 1015.8
15 16.03 В 4 20 км 10/0
[Ac As]
+5.2 -2.8 56 +2 +2 1013.9 1016.2 +8.3
18 16.03 В 2 10 км 10/0
[As op]
+4.7 -1.8 63 +2 +2 1013.9 1016.1
21 16.03 С 2 10 км 10/0
[As op]
+4.0 -1.2 69 +1 +1 1012.6 1014.9
00 17.03 СВ 2 10 км 10/0
[As op]
+3.8 -0.6 73 +1 +1 1012.6 1014.8
03 17.03 В 3 10 км {дождь} 10/3 300 м
[Frnb As op]
+3.2 +2.0 92 -1 -1 1012.9 1015.1 +3.2
06 17.03 СВ 2 4000 м дымка {дождь} 10/10 300 м
[St]
+4.1 +1.9 86 +1 +1 1013.7 1015.9 +3.1
09 17.03 С 2 20 км 10/10 300 м
[St]
+6.4 +2.1 74 +4 +4 1014.0 1016.2
12 17.03 С 4 20 км 10/3 600 м
[Cu hum Cc]
+8.8 +1.3 59 +6 +8 1014.5 1016.7
15 17.03 СВ 3 20 км 5/0
[Cs]
+4.9 +1.4 78 +2 +2 1015.7 1017.9 +8.9
18 17.03 СВ 2 10 км ясно +0.6 -0.4 93 -3 -3 1016.0 1018.3
21 17.03 С 1 4000 м дымка ясно -1.9 -2.5 96 -4 -4 1016.3 1018.6
00 18.03 В 2 2000 м дымка 10/10 300 м
[St]
+1.7 +1.2 96 -2 -2 1016.2 1018.5
03 18.03 СВ 2 2000 м дымка 10/10 300 м
[St]
+1.7 +1.3 97 -2 -2 1016.4 1018.7 -2.0
06 18.03 СВ 3 4000 м дымка 10/10 300 м
[St]
+3.1 +1.7 91 -1 -1 1016.6 1018.9
09 18.03 В 3 20 км 10/8 600 м
[Cu med, cong Ci fib]
+6.2 +1.7 73 +3 +5 1016.4 1018.6
12 18.03 СВ 3 20 км 10/9 600 м
[Cu Sc Ci fib]
+7.5 +2.0 68 +5 +5 1014.9 1017.2
15 18.03 В 5 20 км 10/8 300 м
[Frnb As op]
+6.2 +1.8 73 +2 +2 1015.2 1017.4 +8.3
18 18.03 В 4 10 км 10/0
[As op]
+4.2 +2.1 86 -0 -0 1015.4 1017.7
21 18.03 В 4 4000 м дымка 10/10 300 м
[St]
+0.4 -0.3 95 -5 -5 1015.6 1017.9
00 19.03 ЮВ 3 500 м туман ?/? -1.0 -1.4 97 -6 -6 1015.4 1017.6
03 19.03 В 2 200 м туман ?/? -0.5 -0.9 97 -4 -4 1015.5 1017.8 -1.0
06 19.03 В 4 4000 м дымка {туман} 10/10 300 м
[St]
+0.7 +0.3 97 -5 -5 1016.0 1018.3
09 19.03 В 3 20 км {туман} 10/10 300 м
[St]
+3.2 +0.3 81 -1 -1 1015.0 1017.3
12 19.03 В 2 20 км ясно +8.5 +1.2 60 +7 +12 1013.6 1015.8
15 19.03 СВ 2 20 км 8/0
[Ci fib]
+6.9 +1.2 67 +5 +5 1013.4 1015.6 +9.2
18 19.03 В 3 10 км ясно +4.2 +1.1 80 +1 +1 1013.1 1015.3
21 19.03 В 3 4000 м дымка ясно +0.5 -0.2 95 -4 -4 1012.0 1014.3
00 20.03 В 4 4000 м дымка 10/10 300 м
[St]
+3.5 +2.9 96 -1 -1 1011.5 1013.7
03 20.03 В 5 500 м туман ?/? +2.0 +1.6 97 -4 -4 1010.4 1012.7 +0.3
06 20.03 В 6 20 км {туман} 9/6 300 м
[St Cc]
+6.4 +2.6 77 +2 +3 1009.8 1012.1
09 20.03 В 8-12
{12}
20 км 9/0
[Cs]
+10.9 +2.0 54 +8 +9 1007.8 1010.0
12 20.03 В 6
{11}
20 км 9/9 300 м
[Sc diur, vesp]
+12.9 +3.5 53 +11 +11 1006.8 1009.0
15 20.03 20 км н/о +11.5 +3.5 58 +11 +11 1007.3 1009.4 +13.0
18 20.03 Ю 1 10 км 10/10 300 м
[St]
+8.4 +2.9 68 +8 +8 1007.8 1010.0
21 20.03 СЗ 2 10 км 10/10 300 м
[St]
+8.3 +2.9 69 +7 +7 1007.0 1009.2
00 21.03 СВ 3 10 км 10/10 300 м
[St]
+6.9 +2.5 74 +4 +4 1006.8 1009.0
03 21.03 С 4 10 км 10/10 300 м
[St]
+4.7 +0.9 76 +1 +1 1007.0 1009.2 +4.7
06 21.03 С 4 20 км 10/10 600 м
[Sc]
+3.8 +0.2 77 -1 -1 1007.6 1009.8 +3.8
09 21.03 С 4 4000 м слабый дождь 10/9 300 м
[Frnb As op]
+2.4 +1.0 90 -3 -2 1007.7 1009.9
12 21.03 СЗ 3 1000 м сильный снег {дождь} 10/10 300 м
[Frnb Ns]
+0.3 -0.3 96 -5 -5 1007.1 1009.3
15 21.03 СЗ 4 2000 м снег [диам. отлож. мокр. снега 5 мм] 10/10 300 м
[Frnb Ns]
-0.1 -0.5 97 -6 -6 1007.3 1009.6 +4.7 12
18 21.03 СЗ 4 2000 м снег 10/10 300 м
[Frnb Ns]
-0.1 -0.4 98 -6 -6 1006.8 1009.1
21 21.03 СЗ 3 2000 м снег [диам. отлож. мокр. снега 7 мм] 10/10 300 м
[Frnb Ns]
-0.1 -0.4 98 -5 -5 1006.2 1008.5
00 22.03 СЗ 2 2000 м слабый снег 10/10 300 м
[Frnb Ns]
0.0 -0.3 98 -4 -4 1006.5 1008.7
03 22.03 С 2 1000 м в посл. час снег [диам. отлож. мокр. снега 15 мм] 10/10 300 м
[Frnb Ns]
+0.1 -0.2 98 -4 -4 1008.0 1010.3 -0.1 9 6
06 22.03 С 3 500 м туман {снег} ?/? +0.5 +0.2 98 -4 -4 1009.4 1011.6
09 22.03 С 2 1000 м в посл. час туман 10/10 200 м
[St]
+1.1 +0.8 98 -3 -3 1010.5 1012.8
12 22.03 СВ 1 4000 м дымка {туман} 10/10 300 м
[St]
+1.8 +1.5 98 -0 -0 1012.2 1014.4
15 22.03 В 1 4000 м дымка 10/10 300 м
[St]
+1.4 +1.0 97 -1 -1 1014.3 1016.6 +1.9
18 22.03 В 2 4000 м дымка 10/10 300 м
[St]
+1.3 +0.9 97 -2 -2 1016.4 1018.7
21 22.03 ЮВ 3 4000 м дымка 10/10 300 м
[St]
+1.2 +0.7 96 -3 -3 1017.8 1020.1

 

Местоположение метеостанции Досанг (Астраханская область, Россия): широта 46.92 долгота 47.93 высота над уровнем моря -19 м.

В архиве по умолчанию представлена погода в Досанге за последнюю неделю. Архивные данные за месяц целиком и за предыдущие месяцы, начиная с января 2011 года, Вы можете получить, выбрав интересующий диапазон дат из раскрывающегося списка и нажав кнопку "Ввод!".

Внимание! Время в таблицах - всемирное. Для получения местного времени необходимо прибавить поправку, которая в Досанге равна 4 ч.

Смотрите также архив погоды в соседних городах и на ближайших метеорологических станциях:

Погода в Астрахани (Астраханская область, Россия) (71 км)
Погода в Харабали (Астраханская область, Россия) (74 км)
Погода в Зеленге (Астраханская область, Россия) (98 км)
Погода в Ганюшкино (Атырауская область, Казахстан) (108 км)
Погода в Юсте (Калмыкия, Россия) (124 км)
Погода в Жанауштогане (Атырауская область, Казахстан) (127 км)
Погода в Лимане (Астраханская область, Россия) (136 км)
Погода в Утте (Калмыкия, Россия) (158 км)
Погода в Исатай (Атырауская область, Казахстан) (163 км)
Погода в Верхнем Баскунчаке (Астраханская область, Россия) (170 км)

Пояснения к столбцам:

Ветер - указаны скорость ветра в м/с - средняя за 10 мин, порывы в срок и между сроками (в фигурных скобках) и направление, откуда дует ветер: С - северный, СВ - северо-восточный, В - восточный, ЮВ - юго-восточный, Ю - южный, ЮЗ - юго-западный, З - западный, СЗ - северо-западный.
Видимость - горизонтальная дальность видимости в метрах или километрах. При видимости от 1 до 10 км при отсутствии осадков обычно наблюдается дымка, при ухудшении видимости до 1 км и менее - туман. В сухую погоду видимость может ухудшаться дымом, пылью или мглою.
Явления - указаны атмосферные явления, наблюдавшиеся в срок или в последний час перед сроком; фигурными скобками обозначены явления, наблюдавшиеся между сроками (за 1-3 часа до срока); квадратными скобками обозначены град или гололедные отложения с указанием их диаметра в мм.
Облачность - указаны через наклонную черту общая и нижняя облачность в баллах и высота нижней границы облаков в метрах; квадратными скобками обозначены формы облаков: Ci - перистые, Cs - перисто-слоистые, Cc - перисто-кучевые, Ac - высококучевые, As - высокослоистые, Sc - слоисто-кучевые, Ns - слоисто-дождевые, Cu - кучевые, Cb - кучево-дождевые. Подробнее классификацию облаков см. в Атласе облаков (PDF).
T - Температура воздуха - температура, измеренная на высоте 2 м над землей.
Td - Температура точки росы - температура, при понижении до которой содержащийся в воздухе водяной пар достигнет насыщения.
f - Относительная влажность воздуха - влажноcть воздуха, измеренная на высоте 2 м над землей.
Te - Эффективная температура - температура, которую ощущает одетый по сезону человек в тени. Характеристика душности погоды. При расчете учитывается влияние влажности воздуха и скорости ветра на теплоощущения человека.
Tes - Эффективная температура на солнце - температура, которую ощущает человек, с поправкой на солнечный нагрев. Характеристика знойности погоды. Зависит от высоты солнца над горизонтом, облачности и скорости ветра. Ночью, в пасмурную погоду, а также при ветре 12 м/с и более поправка равна нулю.
P - Атмосферное давление - приведенное к уровню моря атмосферное давление.
Po - Атмосферное давление - измеренное на уровне метеостанции атмосферное давление.
Tmin - Минимальная температура - минимум температуры воздуха на высоте 2 м над землей.
Tmax - Максимальная температура - максимум температуры воздуха на высоте 2 м над землей.
R - Количество осадков - Количество выпавших осадков, мм. При наведении курсора мыши на число - период времени, за который выпало указанное количество осадков.
S - Снежный покров - Высота снежного покрова, см. При наведении курсора мыши на число - состояние снежного покрова и степень покрытия местности в баллах.